Back to catalog

UND ROADS 1

AliveScienceSSO
NORAD 64535·PAYLOAD·🇺🇸 United States

Launched Jun 23, 2025 from Vandenberg Space Force Base

Loading…

Next Passes (next 24 hours)

TLE

FreshSource: Space-Track

Epoch: Sep 14, 2026, 02:26 UTC

1 64535U 25135H   26257.10201737  .00005113  00000-0  21819-3 0  9996
2 64535  97.4752  11.6642 0003448 210.0534 150.0505 15.23349474 68397

Track UND ROADS 1 in real time with AllMySat

Download on the App Store